Weather History for EIDW - November, 2012

Change the Weather History Date:

Monday, November 12, 2012

  Actual Average Record
Temperature  
Mean Temperature 49 °F -  
Max Temperature 56 °F 49 °F 56 °F (2012)
Min Temperature 42 °F 39 °F 32 °F (2007)
Degree Days  
Heating Degree Days 16    
Moisture  
Dew Point 49 °F    
Average Humidity 90    
Maximum Humidity 100    
Minimum Humidity 81    
Precipitation  
Precipitation 0.08 in 0.09 in - ()
Sea Level Pressure  
Sea Level Pressure 29.90 in    
Wind  
Wind Speed 10 mph ()    
Max Wind Speed 21 mph    
Max Gust Speed 29 mph    
Visibility 6.8 miles    
Events Rain    
Averages and records for this station are not official NWS values.
T = Trace of Precipitation, MM = Missing Value Source: Averaged Metar Reports

Daily Weather History Graph

Daily Weather History Graph

Search for Another Location

Airport or City:

Trip Planner

Search our weather history database for the weather conditions in past years. The results will help you decide how hot, cold, wet, or windy it might be!

Date:

Astronomy

Nov. 12, 2012 Rise Set
Actual Time 7:45 AM GMT 4:32 PM GMT
Civil Twilight 7:06 AM GMT 5:11 PM GMT
Nautical Twilight 6:24 AM GMT 5:53 PM GMT
Astronomical Twilight 5:43 AM GMT 6:34 PM GMT
Moon 5:44 AM GMT (11/12) 3:33 PM GMT (11/12)
Length of Visible Light 10h 04m
Length of Day
8h 46m
Waning Crescent, 3% of the Moon is Illuminated
Nov 12
Waning Crescent
Nov 13
New
Nov 20
First Quarter
Nov 28
Full
Dec 6
Last Quarter

Hourly Weather History & Observations

Time (GMT) Temp. Windchill Dew Point Humidity Pressure Visibility Wind Dir Wind Speed Gust Speed Precip Events Conditions
12:00 AM 43 °F - 39 °F 82% 29.97 in 14 mi South 6.7 mph - - Rain Light Drizzle
12:00 AM 42.8 °F 39.3 °F 39.2 °F 87% 29.95 in 6.2 mi South 5.8 mph - N/A   Light Drizzle
12:30 AM 42.8 °F 40.1 °F 39.2 °F 87% 29.95 in 6.2 mi South 4.6 mph - N/A   Mostly Cloudy
1:00 AM 44.6 °F 40.7 °F 39.2 °F 81% 29.92 in 6.2 mi SSE 6.9 mph - N/A   Light Drizzle
1:30 AM 42.8 °F 38.0 °F 41.0 °F 93% 29.92 in 6.2 mi SSE 8.1 mph - N/A   Light Drizzle
2:00 AM 42.8 °F 38.0 °F 41.0 °F 93% 29.89 in 6.2 mi SE 8.1 mph - N/A   Light Drizzle
2:30 AM 42.8 °F 37.5 °F 42.8 °F 100% 29.89 in 6.2 mi SE 9.2 mph - N/A   Light Drizzle
3:00 AM 44.6 °F 38.8 °F 42.8 °F 93% 29.89 in 6.2 mi SSE 11.5 mph - N/A   Light Drizzle
3:30 AM 44.6 °F 39.7 °F 42.8 °F 93% 29.86 in 6.2 mi SSE 9.2 mph - N/A   Light Drizzle
4:00 AM 44.6 °F 40.2 °F 42.8 °F 93% 29.86 in 6.2 mi SSE 8.1 mph - N/A   Light Drizzle
4:30 AM 44.6 °F 41.4 °F 44.6 °F 100% 29.83 in 6.2 mi SSE 5.8 mph - N/A   Light Drizzle
5:00 AM 44.6 °F 42.2 °F 44.6 °F 100% 29.83 in 6.2 mi SSE 4.6 mph - N/A   Light Drizzle
5:30 AM 46.4 °F 44.3 °F 44.6 °F 93% 29.83 in 6.2 mi SSE 4.6 mph - N/A   Light Drizzle
6:00 AM 46 °F - 46 °F 97% 29.84 in 16 mi SSE 6.7 mph - - Rain Light Drizzle
6:00 AM 46.4 °F 43.5 °F 44.6 °F 93% 29.83 in 6.2 mi SSE 5.8 mph - N/A   Mostly Cloudy
6:30 AM 46.4 °F 42.9 °F 46.4 °F 100% 29.83 in 6.2 mi SSE 6.9 mph - N/A   Light Drizzle
7:00 AM 48.2 °F - 48.2 °F 100% 29.83 in 5.0 mi South 4.6 mph - N/A   Light Drizzle
7:30 AM 50.0 °F - 50.0 °F 100% 29.83 in 6.2 mi SW 10.4 mph - N/A   Light Drizzle
8:00 AM 51.8 °F - 50.0 °F 94% 29.83 in 6.2 mi SW 15.0 mph - N/A   Light Drizzle
8:30 AM 51.8 °F - 50.0 °F 94% 29.83 in 5.6 mi WSW 17.3 mph - N/A   Light Drizzle
9:00 AM 53.6 °F - 51.8 °F 94% 29.86 in 6.2 mi WSW 16.1 mph - N/A   Mostly Cloudy
9:30 AM 53.6 °F - 51.8 °F 94% 29.86 in 5.0 mi WSW 18.4 mph - N/A   Light Drizzle
10:00 AM 53.6 °F - 51.8 °F 94% 29.89 in 4.3 mi WSW 15.0 mph - N/A   Light Drizzle
10:30 AM 53.6 °F - 51.8 °F 94% 29.89 in 6.2 mi WSW 13.8 mph - N/A   Mostly Cloudy
11:00 AM 55.4 °F - 51.8 °F 88% 29.89 in 6.2 mi SW 11.5 mph - N/A   Mostly Cloudy
11:30 AM 55.4 °F - 51.8 °F 88% 29.89 in 6.2 mi SW 17.3 mph - N/A   Mostly Cloudy
11:56 AM 55.4 °F - 51.8 °F 88% 29.89 in 6.2 mi SW 17.3 mph - N/A   Mostly Cloudy
12:00 PM 55 °F - 52 °F 84% 29.92 in 16 mi WSW 13.4 mph - - Rain Light Drizzle
12:00 PM 55.4 °F - 51.8 °F 88% 29.89 in 6.2 mi WSW 13.8 mph - N/A   Mostly Cloudy
12:30 PM 55.4 °F - 51.8 °F 88% 29.89 in 6.2 mi SW 12.7 mph - N/A   Mostly Cloudy
1:00 PM 55.4 °F - 51.8 °F 88% 29.89 in 6.2 mi SW 15.0 mph - N/A   Mostly Cloudy
1:30 PM 55.4 °F - 51.8 °F 88% 29.89 in 6.2 mi WSW 20.7 mph - N/A   Mostly Cloudy
2:00 PM 57.2 °F - 51.8 °F 82% 29.89 in 6.2 mi WSW 19.6 mph - N/A Rain Light Rain
2:30 PM 57.2 °F - 51.8 °F 82% 29.89 in 6.2 mi SW 17.3 mph 28.8 mph N/A   Mostly Cloudy
3:00 PM 57.2 °F - 51.8 °F 82% 29.89 in 6.2 mi WSW 18.4 mph - N/A   Mostly Cloudy
3:30 PM 55.4 °F - 51.8 °F 88% 29.89 in 6.2 mi WSW 16.1 mph - N/A   Mostly Cloudy
4:00 PM 55.4 °F - 51.8 °F 88% 29.89 in 6.2 mi SW 17.3 mph - N/A   Mostly Cloudy
4:30 PM 55.4 °F - 51.8 °F 88% 29.92 in 6.2 mi SW 16.1 mph - N/A   Mostly Cloudy
5:00 PM 55.4 °F - 51.8 °F 88% 29.92 in 6.2 mi SW 13.8 mph - N/A   Mostly Cloudy
5:30 PM 55.4 °F - 50.0 °F 82% 29.92 in 6.2 mi SW 15.0 mph - N/A   Scattered Clouds
6:00 PM 54 °F - 51 °F 86% 29.95 in 16 mi SW 13.4 mph - -   Partly Cloudy
6:00 PM 55.4 °F - 51.8 °F 88% 29.92 in 6.2 mi SW 12.7 mph - N/A   Scattered Clouds
6:30 PM 55.4 °F - 51.8 °F 88% 29.95 in 6.2 mi SW 13.8 mph - N/A   Mostly Cloudy
7:00 PM 55.4 °F - 51.8 °F 88% 29.95 in 6.2 mi SW 13.8 mph - N/A   Mostly Cloudy
7:30 PM 55.4 °F - 51.8 °F 88% 29.95 in 6.2 mi SW 11.5 mph - N/A   Light Drizzle
8:00 PM 55.4 °F - 51.8 °F 88% 29.95 in 6.2 mi SW 11.5 mph - N/A   Mostly Cloudy
8:30 PM 55.4 °F - 51.8 °F 88% 29.98 in 6.2 mi SSW 12.7 mph - N/A   Mostly Cloudy
9:00 PM 55.4 °F - 51.8 °F 88% 29.98 in 6.2 mi SW 12.7 mph - N/A   Mostly Cloudy
9:30 PM 55.4 °F - 51.8 °F 88% 29.98 in 6.2 mi SW 12.7 mph - N/A   Mostly Cloudy
10:00 PM 55.4 °F - 51.8 °F 88% 29.98 in 6.2 mi SSW 11.5 mph - N/A   Mostly Cloudy
10:30 PM 55.4 °F - 51.8 °F 88% 29.98 in 6.2 mi SW 9.2 mph - N/A   Mostly Cloudy
11:00 PM 55.4 °F - 51.8 °F 88% 29.98 in 6.2 mi SSW 9.2 mph - N/A   Light Drizzle
11:30 PM 55.4 °F - 51.8 °F 88% 30.01 in 6.2 mi SSW 8.1 mph - N/A   Mostly Cloudy